Location: Unspecified
(0.0000°N, 0.0000°E)
Time: 14:24:37
(UTC+00:00)

COSMOS 1275 DEB - Pass Details

Date: 22 February 2026
Orbit: 902 x 1038 km, 83.0° (Epoch: 19 November)

Event Time Altitude Azimuth Distance (km) Brightness Sun altitude
Rises 05:12:38 0° 203° (SSW) 3,716 ? -15.0°
Reaches altitude 10° 05:15:29 10° 213° (SSW) 2,748 ? -14.3°
Maximum altitude 05:20:52 30° 272° (W) 1,659 ? -13.0°
Drops below altitude 10° 05:26:07 10° 332° (NNW) 2,670 ? -11.7°
Sets 05:28:53 0° 343° (NNW) 3,593 ? -11.0°
